| time (UTC) | temp F | wind direction | speed MPH | gust MPH | rain 1hr in | rain 24hr in | rain mn in | humidity % | barometer mb |
| 20260503184557 | 56 | 18 | 1.0 | 3.0 | 0.00 | 0.22 | 0.18 | 84 | 1013.2 |
| 20260503183054 | 57 | 28 | 1.0 | 4.0 | 0.00 | 0.22 | 0.18 | 85 | 1013.2 |
| 20260503181553 | 57 | 26 | 1.0 | 3.0 | 0.00 | 0.22 | 0.18 | 85 | 1013.2 |
| 20260503180059 | 57 | 15 | 0.0 | 4.0 | 0.00 | 0.22 | 0.18 | 85 | 1013.2 |
| 20260503174558 | 57 | 9 | 0.0 | 3.0 | 0.00 | 0.34 | 0.18 | 84 | 1013.3 |
| 20260503173052 | 58 | 11 | 1.0 | 3.0 | 0.00 | 0.34 | 0.18 | 83 | 1013.2 |
| 20260503171552 | 58 | 28 | 1.0 | 3.0 | 0.00 | 0.34 | 0.18 | 82 | 1013.0 |
| 20260503081502 | 54 | 250 | 0.0 | 0.0 | 0.00 | 0.87 | 0.16 | 97 | 1013.2 |
| 20260503071613 | 53 | 250 | 0.0 | 1.0 | 0.00 | 0.87 | 0.16 | 97 | 1013.0 |
| 20260503060110 | 53 | 253 | 1.0 | 3.0 | 0.01 | 0.87 | 0.16 | 97 | 1012.6 |
| 20260503054558 | 53 | 251 | 1.0 | 3.0 | 0.00 | 0.86 | 0.15 | 97 | 1012.5 |
| 20260503053050 | 53 | 251 | 1.0 | 4.0 | 0.00 | 0.86 | 0.15 | 97 | 1012.5 |
| 20260503051549 | 53 | 253 | 1.0 | 4.0 | 0.00 | 0.86 | 0.15 | 97 | 1012.4 |
| 20260503050049 | 53 | 254 | 0.0 | 2.0 | 0.00 | 0.86 | 0.15 | 97 | 1012.4 |
| 20260503044548 | 53 | 254 | 0.0 | 2.0 | 0.00 | 0.86 | 0.15 | 97 | 1012.3 |
| 20260503043049 | 53 | 254 | 0.0 | 2.0 | 0.00 | 0.86 | 0.15 | 97 | 1012.4 |
| 20260503041546 | 52 | 254 | 0.0 | 1.0 | 0.00 | 0.86 | 0.15 | 97 | 1012.4 |
| 20260503040059 | 53 | 254 | 0.0 | 1.0 | 0.00 | 0.86 | 0.15 | 97 | 1012.5 |
| 20260503034545 | 53 | 254 | 0.0 | 1.0 | 0.00 | 0.86 | 0.15 | 97 | 1012.6 |
| 20260503033043 | 53 | 254 | 0.0 | 2.0 | 0.00 | 0.86 | 0.15 | 97 | 1012.7 |
| 20260503031550 | 53 | 254 | 0.0 | 2.0 | 0.00 | 0.86 | 0.15 | 97 | 1012.7 |
| 20260503030047 | 53 | 254 | 0.0 | 1.0 | 0.01 | 0.86 | 0.15 | 97 | 1012.6 |
| 20260503024538 | 54 | 254 | 0.0 | 1.0 | 0.01 | 0.86 | 0.15 | 97 | 1012.7 |
| 20260503023038 | 54 | 254 | 0.0 | 1.0 | 0.02 | 0.86 | 0.15 | 97 | 1012.7 |
| 20260503021536 | 54 | 254 | 0.0 | 2.0 | 0.02 | 0.86 | 0.15 | 97 | 1012.8 |
| 20260503020037 | 54 | 254 | 0.0 | 0.0 | 0.02 | 0.85 | 0.14 | 98 | 1012.9 |
| 20260503014533 | 54 | 254 | 0.0 | 0.0 | 0.01 | 0.84 | 0.13 | 97 | 1013.0 |
| 20260503013036 | 54 | 254 | 0.0 | 1.0 | 0.01 | 0.84 | 0.13 | 97 | 1013.2 |
| 20260503011531 | 54 | 254 | 0.0 | 2.0 | 0.01 | 0.84 | 0.13 | 97 | 1013.4 |
| 20260503010035 | 54 | 254 | 0.0 | 2.0 | 0.00 | 0.83 | 0.12 | 97 | 1013.4 |
| 20260503004529 | 54 | 254 | 0.0 | 0.0 | 0.00 | 0.83 | 0.12 | 97 | 1013.5 |
| 20260503003027 | 54 | 254 | 0.0 | 0.0 | 0.01 | 0.83 | 0.12 | 97 | 1013.6 |
| 20260503001527 | 54 | 254 | 0.0 | 0.0 | 0.03 | 0.83 | 0.12 | 97 | 1013.7 |
| 20260503000024 | 54 | 254 | 0.0 | 1.0 | 0.07 | 0.83 | 0.12 | 97 | 1014.0 |
| 20260502234528 | 54 | 254 | 0.0 | 1.0 | 0.11 | 0.83 | 0.12 | 97 | 1013.9 |
| 20260502233025 | 54 | 254 | 0.0 | 2.0 | 0.11 | 0.82 | 0.11 | 97 | 1014.0 |
| 20260502231521 | 54 | 254 | 0.0 | 3.0 | 0.09 | 0.80 | 0.09 | 97 | 1014.0 |
| 20260502230026 | 54 | 254 | 0.0 | 4.0 | 0.05 | 0.76 | 0.05 | 97 | 1014.1 |
| 20260502224519 | 55 | 254 | 0.0 | 4.0 | 0.01 | 0.72 | 0.01 | 97 | 1014.2 |
| 20260502223019 | 55 | 244 | 0.0 | 3.0 | 0.00 | 0.71 | 0.00 | 97 | 1014.2 |
| 20260502221517 | 55 | 244 | 0.0 | 0.0 | 0.00 | 0.71 | 0.00 | 97 | 1014.2 |
| 20260502220116 | 55 | 244 | 0.0 | 2.0 | 0.00 | 0.71 | 0.00 | 97 | 1014.1 |
| 20260502214559 | 55 | 244 | 0.0 | 2.0 | 0.00 | 0.71 | 0.71 | 97 | 1014.3 |
| 20260502213101 | 55 | 244 | 0.0 | 3.0 | 0.00 | 0.71 | 0.71 | 97 | 1014.3 |
| 20260502211559 | 55 | 244 | 1.0 | 4.0 | 0.00 | 0.71 | 0.71 | 97 | 1014.2 |
| 20260502210115 | 55 | 240 | 0.0 | 3.0 | 0.00 | 0.71 | 0.71 | 97 | 1014.2 |
| 20260502204559 | 55 | 244 | 0.0 | 3.0 | 0.00 | 0.71 | 0.71 | 97 | 1014.2 |
| 20260502203057 | 55 | 246 | 1.0 | 5.0 | 0.00 | 0.71 | 0.71 | 97 | 1014.2 |
| 20260502201557 | 55 | 282 | 1.0 | 4.0 | 0.00 | 0.71 | 0.71 | 97 | 1014.0 |
| 20260502200057 | 55 | 298 | 2.0 | 6.0 | 0.00 | 0.71 | 0.71 | 97 | 1014.0 |
| 20260502194556 | 55 | 283 | 2.0 | 4.0 | 0.00 | 0.71 | 0.71 | 97 | 1013.9 |
| 20260502193103 | 55 | 306 | 2.0 | 6.0 | 0.03 | 0.71 | 0.71 | 97 | 1013.9 |
| 20260502191600 | 55 | 290 | 0.0 | 4.0 | 0.03 | 0.71 | 0.71 | 97 | 1013.7 |
| 20260502190108 | 55 | 290 | 1.0 | 3.0 | 0.04 | 0.71 | 0.71 | 97 | 1013.6 |